Location: Blankensee
(53.5126°N, 14.3055°E)
Time: 17:51:33
(UTC+00:00)

Helios 1B rocket - Pass Details

Date: 08 August 2020
Orbit: 575 x 583 km, 98.1° (Epoch: 19 September)

Event Time Altitude Azimuth Distance (km) Brightness Sun altitude
Rises 00:46:09 0° 9° (N) 2,804 7.4 -17.3°
Reaches altitude 10° 00:48:27 10° 360° (N) 1,900 6.1 -17.2°
Maximum altitude 00:52:08 33° 296° (WNW) 983 3.6 -17.0°
Enters shadow 00:53:50 23° 252° (WSW) 1,233 3.7 -16.8°
